| time (UTC) | temp F | wind direction | speed MPH | gust MPH | rain 1hr in | rain 24hr in | rain mn in | humidity % | barometer mb |
| 20260901192010 | 65 | 0 | 0.0 | 0.0 | 0.00 | 0.00 | 0.00 | 72 | 19.5 |
| 20260901191010 | 65 | 0 | 0.0 | 0.0 | 0.00 | 0.00 | 0.00 | 69 | 19.5 |
| 20260901190010 | 67 | 0 | 0.0 | 0.0 | 0.00 | 0.00 | 0.00 | 68 | 19.4 |
| 20260901185010 | 68 | 0 | 0.0 | 0.0 | 0.00 | 0.00 | 0.00 | 65 | 19.4 |
| 20260901184010 | 70 | 0 | 0.0 | 0.0 | 0.00 | 0.00 | 0.00 | 63 | 19.3 |
| 20260901183010 | 71 | 0 | 0.0 | 0.0 | 0.00 | 0.00 | 0.00 | 60 | 19.2 |
| 20260901181010 | 74 | 0 | 0.0 | 0.0 | 0.00 | 0.00 | 0.00 | 53 | 19.1 |
| 20260901175010 | 76 | 0 | 0.0 | 0.0 | 0.00 | 0.00 | 0.00 | 52 | 19.1 |
| 20260901174009 | 77 | 315 | 0.0 | 1.0 | 0.00 | 0.00 | 0.00 | 50 | 19.1 |
| 20260901173010 | 77 | 0 | 0.0 | 0.0 | 0.00 | 0.00 | 0.00 | 49 | 19.1 |
| 20260901172009 | 77 | 315 | 0.0 | 1.0 | 0.00 | 0.00 | 0.00 | 48 | 19.1 |
| 20260901171009 | 78 | 315 | 0.0 | 1.0 | 0.00 | 0.00 | 0.00 | 47 | 19.1 |
| 20260901170010 | 78 | 315 | 0.0 | 2.0 | 0.00 | 0.00 | 0.00 | 46 | 19.2 |
| 20260901165009 | 79 | 315 | 0.0 | 2.0 | 0.00 | 0.00 | 0.00 | 46 | 19.3 |
| 20260901164009 | 79 | 0 | 0.0 | 0.0 | 0.00 | 0.00 | 0.00 | 47 | 19.4 |
| 20260901163009 | 79 | 315 | 0.0 | 1.0 | 0.00 | 0.00 | 0.00 | 45 | 19.4 |
| 20260901162009 | 79 | 315 | 0.0 | 2.0 | 0.00 | 0.00 | 0.00 | 45 | 19.4 |
| 20260901161009 | 80 | 247 | 0.0 | 2.0 | 0.00 | 0.00 | 0.00 | 45 | 19.4 |
| 20260901155009 | 80 | 292 | 0.0 | 2.0 | 0.00 | 0.00 | 0.00 | 45 | 19.5 |
| 20260901154009 | 80 | 67 | 0.0 | 2.0 | 0.00 | 0.00 | 0.00 | 44 | 19.5 |
| 20260901153009 | 80 | 292 | 1.0 | 3.0 | 0.00 | 0.00 | 0.00 | 44 | 19.5 |
| 20260901152009 | 82 | 45 | 1.0 | 3.0 | 0.00 | 0.00 | 0.00 | 44 | 19.5 |
| 20260901150010 | 82 | 360 | 1.0 | 5.0 | 0.00 | 0.00 | 0.00 | 43 | 19.6 |
| 20260901145009 | 81 | 202 | 1.0 | 6.0 | 0.00 | 0.00 | 0.00 | 44 | 19.6 |
| 20260901144009 | 82 | 225 | 2.0 | 5.0 | 0.00 | 0.00 | 0.00 | 41 | 19.7 |
| 20260901143009 | 80 | 247 | 1.0 | 5.0 | 0.00 | 0.00 | 0.00 | 44 | 19.7 |
| 20260901142009 | 81 | 202 | 2.0 | 4.0 | 0.00 | 0.00 | 0.00 | 42 | 19.8 |
| 20260901141009 | 81 | 247 | 2.0 | 6.0 | 0.00 | 0.00 | 0.00 | 43 | 19.8 |
| 20260901140010 | 81 | 247 | 5.0 | 11.0 | 0.00 | 0.00 | 0.00 | 43 | 19.9 |
| 20260901135009 | 82 | 270 | 1.0 | 4.0 | 0.00 | 0.00 | 0.00 | 44 | 19.9 |
| 20260901134009 | 81 | 247 | 2.0 | 5.0 | 0.00 | 0.00 | 0.00 | 44 | 20.0 |
| 20260901133009 | 81 | 247 | 3.0 | 7.0 | 0.00 | 0.00 | 0.00 | 44 | 20.1 |
| 20260901130010 | 82 | 247 | 4.0 | 9.0 | 0.00 | 0.00 | 0.00 | 44 | 20.5 |
| 20260901125009 | 81 | 247 | 1.0 | 7.0 | 0.00 | 0.00 | 0.00 | 46 | 20.7 |
| 20260901124009 | 80 | 225 | 1.0 | 8.0 | 0.00 | 0.00 | 0.00 | 48 | 20.8 |
| 20260901123009 | 78 | 247 | 3.0 | 5.0 | 0.00 | 0.00 | 0.00 | 48 | 20.8 |
| 20260901122014 | 79 | 270 | 2.0 | 4.0 | 0.00 | 0.00 | 0.00 | 47 | 20.8 |
| 20260901120010 | 79 | 247 | 1.0 | 5.0 | 0.00 | 0.00 | 0.00 | 48 | 21.0 |
| 20260901113009 | 79 | 225 | 2.0 | 6.0 | 0.00 | 0.00 | 0.00 | 48 | 21.2 |
| 20260901112009 | 78 | 67 | 1.0 | 3.0 | 0.00 | 0.00 | 0.00 | 48 | 21.4 |
| 20260901111009 | 79 | 67 | 1.0 | 4.0 | 0.00 | 0.00 | 0.00 | 50 | 21.4 |
| 20260901104014 | 76 | 67 | 0.0 | 2.0 | 0.00 | 0.00 | 0.00 | 55 | 21.6 |
| 20260901103014 | 76 | 45 | 1.0 | 4.0 | 0.00 | 0.00 | 0.00 | 53 | 21.7 |
| 20260901102014 | 77 | 112 | 1.0 | 3.0 | 0.00 | 0.00 | 0.00 | 52 | 21.7 |
| 20260901101014 | 76 | 90 | 1.0 | 3.0 | 0.00 | 0.00 | 0.00 | 54 | 21.8 |
| 20260901095015 | 76 | 225 | 1.0 | 5.0 | 0.00 | 0.00 | 0.00 | 56 | 22.0 |
| 20260901094014 | 75 | 225 | 2.0 | 4.0 | 0.00 | 0.00 | 0.00 | 56 | 22.0 |
| 20260901093014 | 76 | 247 | 0.0 | 3.0 | 0.00 | 0.00 | 0.00 | 57 | 22.0 |
| 20260901092014 | 75 | 337 | 1.0 | 3.0 | 0.00 | 0.00 | 0.00 | 60 | 21.9 |
| 20260901091014 | 74 | 360 | 0.0 | 2.0 | 0.00 | 0.00 | 0.00 | 63 | 22.0 |
| 20260901090014 | 74 | 315 | 0.0 | 3.0 | 0.00 | 0.00 | 0.00 | 63 | 22.0 |
| 20260901085014 | 73 | 315 | 0.0 | 2.0 | 0.00 | 0.00 | 0.00 | 65 | 21.9 |
| 20260901084014 | 71 | 225 | 1.0 | 6.0 | 0.00 | 0.00 | 0.00 | 67 | 21.9 |
| 20260901081014 | 70 | 292 | 1.0 | 4.0 | 0.00 | 0.00 | 0.00 | 71 | 21.9 |
| 20260901080014 | 69 | 270 | 1.0 | 3.0 | 0.00 | 0.00 | 0.00 | 73 | 21.8 |
| 20260901075014 | 68 | 270 | 1.0 | 3.0 | 0.00 | 0.00 | 0.00 | 74 | 21.8 |
| 20260901073014 | 66 | 270 | 1.0 | 3.0 | 0.00 | 0.00 | 0.00 | 78 | 21.8 |
| 20260901072014 | 65 | 292 | 1.0 | 3.0 | 0.00 | 0.00 | 0.00 | 81 | 21.7 |
| 20260901071014 | 64 | 292 | 0.0 | 1.0 | 0.00 | 0.00 | 0.00 | 83 | 21.7 |
| 20260901070014 | 62 | 270 | 0.0 | 3.0 | 0.00 | 0.00 | 0.00 | 84 | 21.7 |
| 20260901065014 | 61 | 0 | 0.0 | 0.0 | 0.00 | 0.00 | 0.00 | 87 | 21.7 |
| 20260901064014 | 60 | 0 | 0.0 | 0.0 | 0.00 | 0.00 | 0.00 | 88 | 21.7 |
| 20260901063014 | 59 | 0 | 0.0 | 1.0 | 0.00 | 0.00 | 0.00 | 89 | 21.7 |
| 20260901062014 | 58 | 0 | 0.0 | 0.0 | 0.00 | 0.00 | 0.00 | 92 | 21.5 |
| 20260901061014 | 57 | 0 | 0.0 | 0.0 | 0.00 | 0.00 | 0.00 | 93 | 21.4 |
| 20260901060014 | 56 | 0 | 0.0 | 0.0 | 0.00 | 0.00 | 0.00 | 95 | 21.4 |
| 20260901055014 | 55 | 0 | 0.0 | 0.0 | 0.00 | 0.00 | 0.00 | 95 | 21.4 |
| 20260901053014 | 52 | 0 | 0.0 | 0.0 | 0.00 | 0.00 | 0.00 | 96 | 21.3 |
| 20260901052014 | 53 | 0 | 0.0 | 0.0 | 0.00 | 0.00 | 0.00 | 96 | 21.3 |
| 20260901051014 | 53 | 0 | 0.0 | 0.0 | 0.00 | 0.00 | 0.00 | 96 | 21.2 |
| 20260901050014 | 53 | 0 | 0.0 | 0.0 | 0.00 | 0.00 | 0.00 | 96 | 21.2 |
| 20260901045014 | 53 | 0 | 0.0 | 0.0 | 0.00 | 0.00 | 0.00 | 95 | 21.2 |
| 20260901044019 | 53 | 0 | 0.0 | 0.0 | 0.00 | 0.00 | 0.00 | 96 | 21.1 |
| 20260901043014 | 53 | 0 | 0.0 | 0.0 | 0.00 | 0.00 | 0.00 | 96 | 21.2 |
| 20260901042014 | 52 | 0 | 0.0 | 0.0 | 0.00 | 0.00 | 0.00 | 95 | 21.1 |
| 20260901041014 | 53 | 0 | 0.0 | 0.0 | 0.00 | 0.00 | 0.00 | 94 | 21.1 |
| 20260901040014 | 53 | 0 | 0.0 | 0.0 | 0.00 | 0.00 | 0.00 | 95 | 21.2 |
| 20260901034014 | 53 | 0 | 0.0 | 0.0 | 0.00 | 0.00 | 0.00 | 94 | 21.1 |
| 20260901033014 | 53 | 0 | 0.0 | 0.0 | 0.00 | 0.00 | 0.00 | 95 | 21.1 |
| 20260901031014 | 54 | 0 | 0.0 | 0.0 | 0.00 | 0.00 | 0.00 | 94 | 21.3 |
| 20260901030014 | 54 | 0 | 0.0 | 0.0 | 0.00 | 0.00 | 0.00 | 94 | 21.3 |
| 20260901025014 | 54 | 0 | 0.0 | 0.0 | 0.00 | 0.00 | 0.00 | 94 | 21.3 |
| 20260901024014 | 54 | 0 | 0.0 | 0.0 | 0.00 | 0.00 | 0.00 | 93 | 21.2 |
| 20260901023014 | 55 | 0 | 0.0 | 0.0 | 0.00 | 0.00 | 0.00 | 92 | 21.2 |
| 20260901022014 | 55 | 0 | 0.0 | 0.0 | 0.00 | 0.00 | 0.00 | 94 | 21.2 |
| 20260901015014 | 54 | 0 | 0.0 | 0.0 | 0.00 | 0.00 | 0.00 | 93 | 21.2 |
| 20260901014014 | 55 | 0 | 0.0 | 0.0 | 0.00 | 0.00 | 0.00 | 93 | 21.1 |
| 20260901013014 | 55 | 0 | 0.0 | 0.0 | 0.00 | 0.00 | 0.00 | 92 | 21.1 |
| 20260901012014 | 55 | 0 | 0.0 | 0.0 | 0.00 | 0.00 | 0.00 | 91 | 21.2 |
| 20260901011014 | 55 | 0 | 0.0 | 0.0 | 0.00 | 0.00 | 0.00 | 91 | 21.1 |
| 20260901010014 | 55 | 0 | 0.0 | 0.0 | 0.00 | 0.00 | 0.00 | 91 | 21.1 |
| 20260901004014 | 56 | 0 | 0.0 | 0.0 | 0.00 | 0.00 | 0.00 | 90 | 21.2 |
| 20260901003014 | 56 | 0 | 0.0 | 0.0 | 0.00 | 0.00 | 0.00 | 89 | 21.2 |
| 20260901002014 | 57 | 0 | 0.0 | 0.0 | 0.00 | 0.00 | 0.00 | 90 | 21.2 |
| 20260901001014 | 57 | 0 | 0.0 | 0.0 | 0.00 | 0.00 | 0.00 | 89 | 21.1 |
| 20260901000014 | 58 | 0 | 0.0 | 0.0 | 0.00 | 0.00 | 0.00 | 89 | 21.2 |
| 20260831235014 | 57 | 0 | 0.0 | 0.0 | 0.00 | 0.00 | 0.00 | 89 | 21.1 |
| 20260831234014 | 58 | 0 | 0.0 | 0.0 | 0.00 | 0.00 | 0.00 | 87 | 21.1 |
| 20260831233014 | 57 | 0 | 0.0 | 0.0 | 0.00 | 0.00 | 0.00 | 87 | 21.0 |
| 20260831231014 | 60 | 0 | 0.0 | 0.0 | 0.00 | 0.00 | 0.00 | 83 | 20.9 |
| 20260831230014 | 60 | 0 | 0.0 | 0.0 | 0.00 | 0.00 | 0.00 | 83 | 20.9 |
| 20260831225014 | 60 | 0 | 0.0 | 0.0 | 0.00 | 0.00 | 0.00 | 83 | 20.9 |
| 20260831224014 | 60 | 0 | 0.0 | 0.0 | 0.00 | 0.00 | 0.00 | 83 | 21.0 |
| 20260831223014 | 61 | 0 | 0.0 | 0.0 | 0.00 | 0.00 | 0.00 | 82 | 21.0 |
| 20260831222015 | 62 | 0 | 0.0 | 0.0 | 0.00 | 0.00 | 0.00 | 78 | 21.0 |
| 20260831221014 | 63 | 0 | 0.0 | 0.0 | 0.00 | 0.00 | 0.00 | 77 | 21.0 |
| 20260831220014 | 63 | 0 | 0.0 | 0.0 | 0.00 | 0.00 | 0.00 | 76 | 21.0 |
| 20260831215014 | 63 | 0 | 0.0 | 0.0 | 0.00 | 0.00 | 0.00 | 77 | 21.0 |
| 20260831214014 | 63 | 0 | 0.0 | 0.0 | 0.00 | 0.00 | 0.00 | 78 | 20.9 |
| 20260831213017 | 62 | 0 | 0.0 | 0.0 | 0.00 | 0.00 | 0.00 | 77 | 20.9 |
| 20260831210014 | 64 | 0 | 0.0 | 0.0 | 0.00 | 0.00 | 0.00 | 73 | 21.0 |
| 20260831205013 | 66 | 270 | 0.0 | 1.0 | 0.00 | 0.00 | 0.00 | 71 | 20.9 |
| 20260831204013 | 65 | 0 | 0.0 | 0.0 | 0.00 | 0.00 | 0.00 | 71 | 20.9 |
| 20260831203014 | 66 | 270 | 0.0 | 1.0 | 0.00 | 0.00 | 0.00 | 70 | 20.7 |
| 20260831202013 | 66 | 0 | 0.0 | 0.0 | 0.00 | 0.00 | 0.00 | 71 | 20.7 |
| 20260831201013 | 67 | 0 | 0.0 | 0.0 | 0.00 | 0.00 | 0.00 | 69 | 20.7 |
| 20260831200014 | 67 | 0 | 0.0 | 0.0 | 0.00 | 0.00 | 0.00 | 68 | 20.5 |
| 20260831195013 | 67 | 0 | 0.0 | 0.0 | 0.00 | 0.00 | 0.00 | 67 | 20.5 |
| 20260831194013 | 67 | 0 | 0.0 | 0.0 | 0.00 | 0.00 | 0.00 | 67 | 20.3 |